Location: Andershausen
(51.8462°N, 9.8595°E)
Time: 06:05:41
(UTC+00:00)

SL-12 R/B(2) - Pass Details

Date: 18 November 2025
Orbit: 1173 x 2175 km, 63.4° (Epoch: 11 December)

Event Time Altitude Azimuth Distance (km) Brightness Sun altitude
Rises 17:16:55 0° 219° (SW) 4,217 7.6 -16.8°
Reaches altitude 10° 17:19:29 10° 218° (SW) 3,330 7.0 -17.2°
Maximum altitude 17:27:36 84° 132° (SE) 1,509 4.4 -18.4°
Enters shadow 17:35:43 17° 46° (NE) 3,440 5.9 -19.7°
